World > North America > United States > Mississippi > Fame  

Fame, MS Hourly Weather Updates

Feedback E-mail the Weather

Quick Clicks

Fame, MS Weather Maps

°F °C°F °C
Fame Weather Map
UTC Time: 7/21/2024, 01:00
Your Time:

Fame, MS Regional Weather

Expires:202407210100;;013939
ASUS44 KJAN 210010
RWRMS 

MISSISSIPPI HOURLY WEATHER ROUNDUP
NATIONAL WEATHER SERVICE JACKSON MS
700 PM CDT SAT JUL 20 2024

NOTE: "FAIR: INDICATES FEW OR NO CLOUDS BELOW 12,000 FEET WITH NO
SIGNIFICANT WEATHER AND/OR OBSTRUCTIONS TO VISIBILITY.


MSZ003>006-009-014>017-022>024-029>033-037>039-210100-
NORTHEAST MISSISSIPPI
  
CITY           SKY/WX    TMP DP  RH WIND       PRES   REMARKS
ABERDEEN       SUNNY     86  75  70 CALM      30.00R HX  95           
COLUMBUS AFB   MOSUNNY   89  72  57 CALM      29.95S HX  95           
6HR MIN TEMP:  82; 6HR MAX TEMP:  90;                                

CORINTH        CLOUDY    75  70  83 CALM      30.02S                  
IUKA           CLOUDY    77  73  86 CALM      30.02R                  
LOUISVILLE     MOSUNNY   86  73  66 CALM      30.03R HX  93           
STARKVILLE     MOSUNNY   86  72  62 CALM      29.97S HX  92           
TUPELO         MOSUNNY   87  73  62 W3        30.00R HX  94           
6HR MIN TEMP:  83; 6HR MAX TEMP:  89;                                

$$


SKY/WX - Weather  TMP - Temperature  DP - Dew Point  RH - Humidity
WIND - Wind Direction/Speed PRES - Barometric Pressure VSB - Visibility
WCI - Wind Chill Index E13G22 Wind - East Wind 13 mph/Gusts of 22 mph

Trending Headlines

Trending Entertainment Headlines

Fame Radar Loop

Use the map search tool if you want to place a location marker on the radar map...

Fame Quick Facts

National Two Day Weather Forecast


E-mail the Fame Weather Forecast

Voice your opinion or tell us about page issues...